Hourly Weather Roundup
Issued by NWS Central Illinois

Home | Current Version | Previous Version | Text Only | Print | Product List | Glossary On
Versions: 1 2 3 4 5 6 7 8 9 10 11 12 13 14 15 16 17 18 19 20 21 22 23 24 25 26 27 28 29 30 31 32 33 34 35 36 37 38 39 40 41 42 43 44 45 46 47 48 49 50
000
NZUS43 KILX 222110
HWRILX

Area Weather Roundup
National Weather Service Lincoln IL
400 PM CDT TUE MAY 22 2018

NOTE:  "FAIR" indicates few or no clouds below 12,000 feet, with
       no sigificant weather and/or obstructions to visibility.


CITY           SKY/WX    TMP DP  RH WIND       PRES   REMARKS
Bloomington    PTSUNNY   79  59  50 NW13      30.04F HX  80
Champaign      FAIR      83  58  42 NW10G21   30.01F HX  83
Danville       FAIR      81  60  48 NW10      29.98F HX  81
Decatur        FAIR      80  60  50 NW9       30.01F HX  81
Effingham      FAIR      85  60  42 NW10G16   30.02F HX  85
Flora          FAIR      86  62  44 NW7       30.00F HX  86
Galesburg      FAIR      76  60  56 NW7       30.05F
Jacksonville   SUNNY     80  60  51 NW7       30.03F HX  81
Lacon          FAIR      75  60  60 NW6       30.04F
Lawrenceville  FAIR      88  60  38 W15       29.98F HX  87
Litchfield     MOSUNNY   81  62  52 NW9G17    30.03S HX  82
$$


CITY           SKY/WX    TMP DP  RH WIND       PRES   REMARKS
Lincoln        FAIR      82  61  49 NW5       30.02F HX  82
Macomb         PTSUNNY   77  60  55 NW6       30.06F
Mattoon        PTSUNNY   84  64  50 NW14      29.99F HX  85
Mt Carmel AP   FAIR      86  60  40 NW12G20   29.98F HX  86
Olney-Noble AP FAIR      84  55  37 N8        30.00F HX  82
Paris AP       CLOUDY    82  62  50 N7        30.01S HX  83
Peoria         FAIR      78  60  53 NW6       30.03F
Pontiac        FAIR      76  65  67 NW12      30.04F
Rantoul        FAIR      83  59  45 NW9       30.01F HX  83
Robinson       PTSUNNY   84  66  54 NW7       29.99F HX  86
Springfield    FAIR      84  61  45 NW10      30.03F HX  84
Taylorville    PTSUNNY   82  62  49 N9        30.02F HX  83
$$

...REGIONAL REPORTS...


CITY           SKY/WX    TMP DP  RH WIND       PRES   REMARKS
Chicago O`Hare CLOUDY    65  55  70 E7        30.04F
Kankakee       FAIR      74  60  61 NW12      30.03F
La Salle       FAIR      75  62  64 NW9       30.05S
Moline         FAIR      77  61  57 N6        30.03F
Mount Sterling SUNNY     79  61  53 N6        30.03F HX  80
Mount Vernon     N/A     84  62  47 VRB5      30.00F HX  85
Pittsfield     SUNNY     81  64  55 N5        30.05S HX  83
Quincy         MOSUNNY   82  60  47 N7        30.03F HX  82
Rockford       CLOUDY    69  59  70 N8        30.06F
$$


CITY           SKY/WX    TMP DP  RH WIND       PRES   REMARKS
Burlington     CLOUDY    79  62  56 E3        30.03F HX  80
Cedar Rapids   FAIR      76  60  57 CALM      30.02F
Des Moines     CLOUDY    76  63  64 S5        30.01S
Kirksville     CLOUDY    83  62  49 VRB3      30.02F HX  84
Ottumwa        MOSUNNY   80  61  52 CALM      30.01F HX  81
St Louis       MOSUNNY   83  63  50 N9        30.03F HX  84
$$


CITY           SKY/WX    TMP DP  RH WIND       PRES   REMARKS
Terre Haute    FAIR      85  60  42 NW10G18   29.98F HX  85
Evansville     FAIR      87  65  47 VRB3      29.97F HX  89
Indianapolis   PTSUNNY   83  62  49 NW13      29.98S HX  84
Lafayette      FAIR      79  60  52 N16       29.99S HX  80
Madison        PTSUNNY   68  58  70 W5        30.06S
Milwaukee      FAIR      64  56  75 SE5       30.05F
$$






USA.gov is the U.S. government's official web portal to all federal, state and local government web resources and services.